Showing default

OTB, 44341

Orbit data source: Space-Track

OTB, 44341 is a payload satellite owned by GA-EMS (US) in LEO that was launched on Tue, 25 Jun 2019 UTC via an FALCON HEAVY launch vehicle from the Air Force Eastern Test Range (AFETR). Payload-class satellites include a variety of spacecraft equipped with specific instruments for various scientific and technological missions. These include communications satellites like Starlink; space stations such as the ISS; scientific satellites like the Hubble; Earth observation satellites from companies like Planet Labs, Umbra, and HawkEye 360; GPS; miniature CubeSats for education and research; and military/defense satellites.

Not visible in the next 10 days
Identifier
44341, 2019-036C
Orbit
LEO
Last TLE update
21 hours ago
Origin
Manufacturer
GA-EMS
Mission
Operational Commercial Tech/Misc
Bus & Motor
SSTL-150, Unknown motor
Mass
100 kg wet, 100 kg dry
Launch date (UTC)
2019-06-25 (6 years ago)
Launch vehicle
FALCON HEAVY
Launch site
Air Force Eastern Test Range (AFETR)
Object type
Payload
Rocket body
Debris
Shape & HBR
Box + 4 Pan, 3 m
Radar Cross Section
1.570 m², Large (>1 m²)

Expand to show TLE details & history

TLE from 21 hours ago
0 OTB
1 44341U 19036C   25185.87466292  .00001053  00000-0  18586-3 0  9990
2 44341  23.9983  18.8624 0011118 147.4561 212.6617 14.56179737320674
Epoch: 2025-07-04T20:59Z
TLE epoch observation values (Epoch: 2025-07-04T20:59:30.876Z)
Latitude
-0.00002°
Longitude
140.86291°
Altitude
710.094 km
Speed
7.5 km/s
True Right ascension
01h 15m 26s
True Declination
0° 00' 00"
Sunlit
Object was in daylight at epoch
Visualization orbit readout
Latitude
-23.53588°
Longitude
32.03609°
Altitude
710.789 km
Speed
7.501 km/s
Apparent Right ascension
17h 55m 40s
Apparent Declination
-31° 08' 14"
Sunlit
Object is in full shadow
Visualization observer readout
Local Sidereal Time
05:49:44
Azimuth
351.734° N
Elevation
-81.139°
Doppler factor
1
Orbital elements
Apogee altitude
718.098 km
Perigee altitude
702.337 km
Semi-major axis
7,088.355 km
Eccentricity
0.00111
Inclination
23.9983°
RAAN
18.8624°
Arg. of periapsis
147.4561°
True anomaly
Unknown
Mean anomaly
212.6617°
Eccentric anomaly
Unknown
Mean motion
3.63685 °/min
Orbital period
98.99 mins
BSTAR
0.00018586
Loading maneuver chart data...
Loading SW <> Apogee altitude chart data...
Loading historical data...
Loading historical data...
Loading historical data...
Loading historical data...
Loading historical data...
Loading historical data...
Loading historical data...

OTB Visibility

Observer location: undefined°, undefined°

OTB is likely not visible in the next few days
Span
Click to sort rows by Start time (UTC) header in descending order
Start Az.
Max El. time (UTC)
Max El. Az.
Max El.
End time (UTC)
End Az.
|